Overview Statistics Trail Chart Weather Telemetry Raw packets
 

This is the latest recevied weather packets stored in our database for station/object VK2EHQ. If no packets are shown the sender has not sent any weather packets the latest 10 day(s).

<< 38 39 40 41 42 43 44 >>
Time Temp. Humidity Pressure Rain* Wind** Luminosity Snow
1787969985 17.78° C 65% 1031.1 hPa 0 mm - - -
1787969384 17.22° C 63% 1031.2 hPa 0 mm - - -
1787968785 16.67° C 61% 1031.3 hPa 0 mm - - -
1787968184 16.67° C 50% 1031.4 hPa 0 mm - - -
1787967584 16.11° C 40% 1031.4 hPa 0 mm - - -
1787966984 16.11° C 30% 1031.5 hPa 0 mm - - -
1787966384 15.56° C 27% 1031.6 hPa 0 mm - - -
1787965785 15° C 25% 1031.7 hPa 0 mm - - -
1787965184 15° C 25% 1031.8 hPa 0 mm - - -
1787963984 14.44° C 26% 1031.9 hPa 0 mm - - -
1787963384 13.89° C 27% 1031.9 hPa 0 mm - - -
1787962784 13.89° C 28% 1032 hPa 0 mm - - -
1787962184 13.89° C 28% 1032 hPa 0 mm - - -
1787961584 13.33° C 29% 1031.9 hPa 0 mm - - -
1787960983 13.33° C 29% 1031.9 hPa 0 mm - - -
1787960383 13.33° C 30% 1031.8 hPa 0 mm - - -
1787959783 12.78° C 31% 1031.7 hPa 0 mm - - -
1787959183 12.78° C 32% 1031.7 hPa 0 mm - - -
1787958583 12.78° C 32% 1031.6 hPa 0 mm - - -
1787957983 12.22° C 33% 1031.5 hPa 0 mm - - -
1787957384 12.22° C 34% 1031.5 hPa 0 mm - - -
1787956783 12.22° C 34% 1031.4 hPa 0 mm - - -
1787956183 12.22° C 35% 1031.3 hPa 0 mm - - -
1787955583 12.22° C 35% 1031 hPa 0 mm - - -
1787954983 12.22° C 36% 1031 hPa 0 mm - - -

* Rain latest hour (hover to see other rain measurements)
** Current wind speed in m/s (hover to see current wind gust speed)